Location: Arroyo de los Albañales
(40.2097°N, 4.3236°W)
Time: 04:29:48
(UTC+00:00)

Daily predictions for brighter satellites

Satellite Brightness Start Highest point End
(mag) Time Altitude Azimuth Time Altitude Azimuth Time Altitude Azimuth
ADEOS II 4.3 02:56:53 10° N 02:58:10 17° N 02:58:10 17° N
Cosmos 1934 Rocket 4.4 03:08:35 57° E 03:08:44 57° E 03:14:56 10° NNE
PAYLOAD A 4.5 03:29:54 10° NNE 03:34:34 52° E 03:34:35 52° E
Tiangong 1.3 03:38:03 12° E 03:38:03 12° E 03:38:19 10° E
Atlas Centaur 2 3.7 03:36:13 35° S 03:36:31 35° S 03:42:59 10° ESE
X-37B 4.0 03:43:15 12° ENE 03:43:15 12° ENE 03:43:28 10° ENE
Cosmos 1656 4.3 03:38:09 10° NNW 03:43:46 55° ENE 03:49:19 10° SE
ALOS 2.8 03:40:34 10° NNE 03:44:08 53° NNE 03:44:08 53° NNE
BREEZE-M R/B 4.4 03:49:01 46° NW 03:50:15 52° NNW 04:00:49 10° ENE
USA 307 3.9 03:51:03 40° ESE 03:51:03 40° ESE 03:54:29 10° ENE
Helios 1B rocket 2.8 03:52:00 10° NNE 03:55:38 61° ENE 03:55:38 61° ENE
Meteor 1-5 Rocket 3.9 03:51:03 10° N 03:56:29 83° W 03:57:32 59° S
ARIANE 5 R/B 3.1 03:52:54 10° NNE 03:57:51 54° E 04:00:51 23° S
USA 306 3.0 04:05:17 69° ESE 04:05:17 69° ESE 04:09:11 10° NE
CZ-3 R/B 4.3 03:53:52 22° SW 04:08:56 38° S 04:17:53 10° ESE
Cosmos 1484 Rocket 3.8 04:06:37 10° NNE 04:10:28 47° E 04:12:53 20° SSE
Cosmos 1624 Rocket 4.5 04:10:45 19° S 04:14:31 60° ESE 04:19:45 10° NNE
Cosmos 2098 Rocket 4.0 04:12:48 10° NNE 04:15:25 31° E 04:18:07 10° SE
Cosmos 1666 Rocket 4.2 04:11:10 10° N 04:15:35 58° E 04:20:00 10° SSE
Cosmos 1328 Rocket 4.2 04:15:12 10° S 04:19:26 56° E 04:23:45 10° NNE
Cosmos 1833 Rocket 2.6 04:19:48 31° SSW 04:22:37 86° WNW 04:28:18 10° NNE
BREEZE-M DEB (TANK) 4.0 04:20:00 23° WNW 04:22:47 41° N 04:25:28 10° ENE
CZ-2C R/B 2.6 04:19:41 10° N 04:24:31 48° WNW 04:25:10 45° W
USA 234 3.3 04:17:59 10° NE 04:24:32 76° SE 04:28:44 24° SW
USA 308 2.7 04:24:31 60° SW 04:25:13 86° SE 04:29:24 10° NE
Cosmos 1515 3.7 04:23:59 32° S 04:25:36 75° E 04:29:19 10° N
ERBS 3.6 04:28:10 26° N 04:28:10 26° N 04:29:51 10° NNE
Cosmos 1371 Rocket 4.0 04:23:46 21° SSW 04:27:22 86° ESE 04:32:40 10° NNE
Cosmos 2251 Rocket 3.6 04:22:41 10° NNW 04:27:44 49° WSW 04:32:44 10° S
OceanSat 1 rocket 4.5 04:23:20 10° N 04:28:05 80° WNW 04:31:10 22° SSW
Aureole 3 3.6 04:28:39 47° WNW 04:28:39 47° WNW 04:31:57 10° N
CZ-2C R/B 3.8 04:27:26 10° NNE 04:29:36 34° E 04:34:09 10° SSE
Envisat 3.4 04:25:31 10° NNE 04:30:34 62° E 04:35:35 10° S
COSMOS 2406 3.8 04:26:12 10° S 04:31:45 58° ESE 04:37:18 10° NNE
Cosmos 2082 Rocket 3.3 04:27:46 10° S 04:33:03 44° ESE 04:38:20 10° NE
Cosmos 1536 3.7 04:29:16 10° N 04:33:13 50° E 04:37:08 10° SSE
IRS-1C 4.1 04:28:16 10° N 04:33:31 60° WNW 04:36:46 23° SW
Cosmos 1447 Rocket 4.4 04:28:38 10° N 04:34:58 78° W 04:41:12 10° S
Meteor 2-6 Rocket 4.4 04:35:16 31° SW 04:37:24 46° WNW 04:42:39 10° N
Cosmos 1151 Rocket 3.1 04:36:50 40° WSW 04:37:51 49° W 04:42:00 10° N
YAOGAN 6 2.5 04:37:25 10° N 04:41:04 88° WNW 04:43:58 15° SSW
Sich 1 4.1 04:38:25 10° NNW 04:40:54 26° WNW 04:40:54 26° WNW
Cosmos 1140 Rocket 3.6 04:39:36 10° NNW 04:44:37 49° WSW 04:49:36 10° S
IKONOS-2 4.4 04:41:21 10° SSE 04:45:34 88° WSW 04:49:48 10° NNW
Cosmos 1470 Rocket 4.1 04:42:16 10° N 04:46:33 59° E 04:50:50 10° SSE
Cosmos 1697 Rocket 2.7 04:42:59 10° NNW 04:48:40 85° ENE 04:54:20 10° SSE
Cosmos 1356 3.7 04:49:23 38° WNW 04:49:23 38° WNW 04:52:26 10° N
Cosmos 1346 Rocket 2.8 04:47:03 19° SSW 04:49:48 58° W 04:53:44 10° N
ASTRO E2 4.4 04:49:27 17° SSW 04:50:54 21° S 04:53:52 10° SE
ATLAS CENTAUR R/B 1.8 04:47:28 14° SSW 04:51:35 81° ESE 04:56:29 10° NE
BREEZE M DEB (TANK) 4.1 04:37:32 16° SW 04:51:54 88° NW 04:56:31 10° ENE
Cosmos 2084 4.2 04:54:00 27° W 04:54:51 30° WSW 04:58:37 10° S
USA 305 3.3 04:53:50 27° W 04:55:34 43° NW 04:59:32 10° NE
Cosmos 2056 Rocket 3.6 04:53:44 15° SW 04:57:57 54° WNW 05:02:58 10° N
BREEZE-M DEB (TANK) 4.2 04:56:15 10° NW 04:58:11 16° N 04:59:48 10° NE
Cosmos 1743 2.5 04:54:38 10° N 04:58:26 74° W 05:02:12 10° S
Cosmos 1441 Rocket 3.1 04:57:16 10° SSW 05:00:53 59° W 05:04:35 10° N
Meteor 1-27 Rocket 3.7 04:55:17 10° SSW 05:00:58 74° W 05:06:50 10° N
CZ-2C R/B 3.1 04:57:47 10° NNE 05:01:31 66° ESE 05:05:18 10° S
CZ-2C R/B 2.8 04:57:08 10° S 05:02:04 46° W 05:07:08 10° NNW
Cosmos 1802 Rocket 4.3 04:57:13 10° S 05:03:37 77° E 05:09:59 10° N
Cosmos 1190 Rocket 4.0 04:59:18 10° NNW 05:04:24 58° WSW 05:09:29 10° S
DELTA 2 DEB (DPAF) 4.4 05:00:49 10° S 05:04:58 42° W 05:09:10 10° NNW
Cosmos 1954 Rocket 4.0 05:00:43 10° NNW 05:05:58 86° WSW 05:11:14 10° SSE
Cosmos 1459 Rocket 4.0 05:02:05 10° S 05:08:24 78° W 05:14:48 10° N
Cosmos 1420 Rocket 4.2 05:05:06 10° SW 05:10:11 50° WNW 05:15:16 10° N
COSMO-SKYMED 1 3.8 05:06:19 10° SE 05:10:28 46° ENE 05:14:37 10° N
CENTAUR R/B 3.2 05:05:10 10° SSW 05:10:30 53° ESE 05:16:55 10° NE
Tiangong -1.7 05:10:11 22° W 05:11:52 45° SSW 05:14:53 10° SE
Cosmos 1378 3.6 05:09:55 10° S 05:13:28 61° E 05:17:04 10° NNE
CZ-4C R/B 3.3 05:09:51 10° S 05:13:52 76° W 05:18:06 10° NNW
Spot 4 Rocket 4.1 05:09:10 10° N 05:14:13 60° WNW 05:19:15 10° SSW
DELTA 2 R/B (1) 3.8 05:10:46 15° WSW 05:15:23 69° SSE 05:20:57 10° E
Meteor 1-29 3.5 05:13:05 10° N 05:16:06 35° WNW 05:19:08 10° SW
X-37B 1.4 05:14:29 18° WNW 05:16:14 35° N 05:18:55 10° ENE
Cosmos 407 Rocket 4.3 05:12:41 10° NW 05:17:10 28° W 05:21:39 10° SSW
CZ-2D R/B 4.4 05:14:15 10° NNW 05:17:32 25° WNW 05:20:41 11° SW
Okean 1 3.3 05:14:10 10° S 05:18:12 88° W 05:22:16 10° N
H-2A ROCKET BODY 4.1 05:13:00 12° WSW 05:18:24 34° S 05:39:27 10° ESE
SJ-12 4.2 05:15:15 10° NNE 05:19:19 73° E 05:23:23 10° S
Cosmos 1725 Rocket 4.2 05:13:05 10° S 05:19:21 78° E 05:25:42 10° N
NOSS 3-2 (A) 3.6 05:16:44 10° SSW 05:21:57 66° ESE 05:27:57 10° NE
Lacrosse 4 Rocket 4.4 05:20:12 10° NNE 05:22:25 14° NE 05:24:38 10° ENE
Atlas Centaur 2 3.5 05:18:44 11° WSW 05:25:23 37° S 05:31:16 10° ESE
Meteor 2-9 Rocket 4.4 05:19:56 10° N 05:25:45 84° E 05:31:22 10° S
Cosmos 2369 3.7 05:20:50 10° NNW 05:26:32 88° WSW 05:32:11 10° SSE
Cosmos 1980 Rocket 2.2 05:21:34 10° NNW 05:27:12 87° ENE 05:32:48 10° SSE
H-2A R/B 3.1 05:25:45 10° N 05:29:09 39° WNW 05:32:34 10° SW
USA 307 3.9 05:26:40 12° W 05:30:02 31° NNW 05:33:47 10° NE
MINOTAUR 4 R/B 3.9 05:26:58 10° S 05:30:27 73° WSW 05:33:57 10° NNW
Helios 1B rocket 4.5 05:29:54 10° NW 05:30:35 10° WNW 05:31:17 10° WNW
Cosmos 2173 Rocket 4.2 05:29:38 10° SSW 05:35:29 45° WNW 05:41:19 10° N
ARIANE 5 R/B 3.9 05:33:07 10° NNW 05:36:29 18° WNW 05:39:48 10° WSW
SL-08 R/B 4.3 05:34:26 10° SSW 05:38:13 25° W 05:42:03 10° NW
GP-B 3.5 05:35:43 10° SSW 05:39:54 42° W 05:44:08 10° NNW
SL-16 R/B 4.3 05:35:29 10° N 05:40:27 30° ENE 05:45:23 10° ESE
Cosmos 1975 3.8 05:37:41 10° N 05:41:37 53° E 05:45:29 10° SSE
Cosmos 1633 Rocket 4.4 05:40:19 10° NW 05:43:13 18° W 05:46:06 10° SW
USA 306 4.3 05:41:26 10° W 05:44:45 23° NNW 05:48:07 10° NNE
CZ-4B R/B 3.6 05:40:26 10° N 05:45:37 68° WNW 05:50:50 10° SSW
Cosmos 1331 Rocket 4.3 05:41:09 10° SSW 05:46:16 76° ESE 05:51:26 10° NNE
